SCP
0 0 0 0 0 0 0 0 0 0 0 0 0 0 0 0 0 0 0 0 0 0 0 0 0 0 0 0 0 0 0 0 0 0 0 0 0 0 0 0 0 0 0
0 0 0 0 0 0 0 0 0 0 0 0 0 0 0 0 0 0 0 0 0 0 0 0 0 0 0 0 0 0 0 0 0 0 0 0 0 0 0 0 0 0 0
0 0 0 0 0 0 0 0 0 0 0 0 0 0 0 0 0 0 0 0 0 0 0 0 0 0 0 0 0 0 0 0 0 0 0 0 0 0 0 0 0 0 0
0 0 0 0 0 0 0 0 0 0 0 0 0 0 0 0 0 0 0 0 0 0 0 0 0 0 0 0 0 0 0 0 0 0 0 0 0 0 0 0 0 0 0
0 0 0 0 0 0 0 0 0 0 0 0 0 0 0 0 0 0 0 0 0 0 0 0 0 0 0 0 0 0 0 0 0 0 0 0 0 0 0 0 0 0 0
0 0 0 0 0 0 0 0 0 0 0 0 0 0 0 0 0 0 0 0 0 0 0 0 0 0 0 -0 0 -0 0 0 0 0 0 0 0 0 0 0 0 0 0
0 0 0 0 0 0 0 0 0 0 0 0 0 0 0 0 0 0 0 0 0 0 0 0 0 0 -0 -0 -0 -0 0 -0 -0 -0 0 0 0 0 0 0 0 0 0
0 0 0 0 0 0 0 0 0 0 0 0 0 0 0 0 0 0 0 0 0 0 0 0 0 0 0 -0 0 0 0 0 -0 -0 -0 0 0 0 0 0 0 0 0
0 0 0 0 0 0 0 0 0 0 0 0 0 0 0 0 0 0 0 0 0 0 0 0 0 0 0 0 0 0 0 0 0 -0 -0 -0 -0 0 0 0 0 0 0
0 0 0 0 0 0 0 0 0 0 0 0 0 0 0 0 0 0 0 0 0 0 0 0 0 0 0 0 0 0 0 0 0 0 -0 0 0 -0 0 0 0 0 0
0 0 0 0 0 0 0 0 0 0 0 0 0 0 0 0 0 0 0 0 0 0 0 0 0 0 0 0 0 -0 -0 -0 0 -0 0 0 0 0 0 0 0 0 0
0 0 0 0 0 0 0 0 0 0 0 0 0 0 0 0 0 0 0 0 0 0 0 0 0 0 -0 -0 0 0 -0 -0 -0 -0 0 0 0 0 0 0 0 0 0
0 0 0 0 0 0 0 0 0 0 0 0 0 0 0 0 0 0 0 0 0 0 0 0 0 0 0 -0 0 0 0 0 0 0 0 -0 -0 0 0 0 0 0 0
0 0 0 0 0 0 0 0 0 0 0 0 0 0 0 0 0 0 0 0 0 0 0 0 0 0 0 0 0 0 0 0 0 0 0 0 -0 -0 -0 0 0 0 0
0 0 0 0 0 0 0 0 0 0 0 0 0 0 0 0 0 0 0 0 0 0 0 0 0 0 0 0 0 -0 0 0 0 0 0 0 0 0 -0 0 0 0 0
0 0 0 0 0 0 0 0 0 0 0 0 0 0 0 0 0 0 0 0 0 0 0 0 0 0 0 0 0 0 0 0 0 0 0 0 0 -0 -0 0 0 0 0
0 0 0 0 0 0 0 0 0 0 0 0 0 0 0 0 0 0 0 0 0 0 0 0 0 0 0 0 0 0 0 0 0 0 0 0 0 0 0 0 -0 0 -0
0 0 0 0 0 0 0 0 0 0 0 0 0 0 0 0 0 0 0 0 0 0 0 0 0 0 0 0 0 0 0 0 0 0 0 0 0 -0 0 0 0 0 0
0 0 0 0 0 0 0 0 0 0 0 0 0 0 0 0 0 0 0 0 0 0 0 0 0 0 0 0 0 0 0 0 0 0 0 0 0 -0 -0 -0 0 0 0
0 0 0 0 0 0 0 0 0 0 0 0 0 0 0 0 0 0 0 0 0 0 0 0 0 0 0 0 0 0 0 0 0 0 0 0 0 0 0 0 0 0 0
0 0 0 0 0 0 0 0 0 0 0 0 0 0 0 0 0 0 0 0 0 0 0 0 0 0 0 0 0 0 0 0 0 0 0 0 0 0 0 0 0 0 0
0 0 0 0 0 0 0 0 0 0 0 0 0 0 0 0 0 0 0 0 0 0 0 0 0 0 0 0 0 0 0 0 0 0 0 0 0 0 0 0 0 -0 -0
0 0 0 0 0 0 0 0 0 0 0 0 0 0 0 0 0 0 0 0 0 0 0 0 0 0 0 0 0 0 0 0 0 0 0 0 0 0 0 0 0 0 0
0 0 0 0 0 -0 -0 -0 0 0 0 0 0 0 0 0 0 0 0 0 0 0 0 0 0 0 0 0 0 0 0 0 0 0 0 0 0 0 0 0 0 0 0
0 0 0 0 0 0 -0 -0 -0 0 0 0 0 0 0 0 0 0 0 0 0 0 0 0 0 0 0 0 0 0 0 0 0 0 0 0 0 0 0 0 0 0 0
0 0 0 0 0 0 0 -0 -0 0 0 0 0 0 0 0 0 0 0 0 0 0 0 0 0 0 0 0 0 0 0 0 0 0 0 0 0 0 0 0 0 0 0
Wind_Speed_500mb
32 29 31 33 32 37 38 38 43 50 49 52 56 55 58 53 53 49 61 52 54 59 60 51 51 47 48 46 44 39 35 34 31 27 28 49 54 41 37 45 44 42 36
32 29 32 35 35 37 39 40 43 48 46 47 53 56 63 54 54 51 60 55 59 56 52 50 57 50 44 43 40 37 29 31 29 22 19 19 27 53 46 38 41 49 44
32 31 33 34 34 39 40 41 42 47 47 53 54 62 66 61 58 57 66 70 56 52 53 50 52 57 48 40 38 35 32 26 25 27 19 11 9 20 28 42 42 41 49
31 29 32 33 34 38 39 40 42 46 48 53 54 57 58 59 60 59 62 70 58 56 61 58 54 56 49 41 32 30 29 24 28 27 27 24 29 10 14 19 37 45 48
29 29 31 33 30 37 40 40 43 45 49 52 49 52 56 58 58 58 64 74 64 64 67 70 66 49 43 38 24 29 33 18 23 23 23 13 19 27 19 29 12 30 31
26 26 29 34 34 35 38 39 44 45 46 49 50 52 56 57 57 54 62 79 78 75 73 79 66 48 37 28 21 19 23 17 7 16 12 14 10 8 18 20 25 21 11
26 27 32 36 36 39 37 37 43 47 47 50 52 54 51 64 52 45 54 69 81 78 81 83 55 37 29 17 16 19 18 15 12 8 12 17 14 15 20 17 27 26 26
25 27 30 34 34 38 37 37 42 48 49 52 51 51 58 69 40 48 56 62 72 75 81 83 54 33 22 14 15 19 19 18 9 10 7 10 14 20 19 17 17 21 23
26 25 27 31 32 36 39 38 43 45 48 51 53 49 59 58 46 53 56 59 65 73 77 71 61 47 34 28 22 25 25 20 20 12 9 10 6 12 19 26 22 24 10
22 22 24 29 29 37 40 38 41 45 47 47 50 48 66 53 62 55 48 59 59 67 71 71 59 43 42 31 32 25 24 23 20 15 15 18 13 11 11 18 27 20 25
19 20 23 25 21 31 33 37 40 45 46 47 49 54 48 48 60 60 37 51 58 57 58 63 57 61 40 27 25 23 20 19 20 17 17 18 17 15 11 12 18 23 26
17 17 20 29 21 31 34 37 40 44 44 44 47 56 42 49 55 61 42 52 56 53 52 55 57 59 59 44 33 35 27 21 22 21 16 13 16 20 18 13 13 20 24
15 15 19 29 24 33 34 35 39 43 45 44 46 54 52 49 46 57 51 51 48 53 53 58 52 54 57 56 47 42 37 32 33 34 24 22 15 14 21 19 18 19 16
11 12 17 25 17 28 32 33 37 41 43 45 46 51 50 54 41 45 55 56 37 48 53 48 54 53 50 49 50 46 51 42 31 29 39 24 19 12 19 20 26 13 18
9 10 17 24 16 27 31 32 34 40 40 45 45 49 47 46 48 38 48 52 53 42 47 42 48 55 52 48 40 41 40 52 40 38 38 43 19 20 22 17 17 22 26
6 8 15 21 16 25 29 28 33 38 38 42 42 45 47 46 53 33 38 49 50 49 53 46 40 49 57 51 39 34 39 37 53 48 38 43 41 13 4 13 3 10 18
5 7 13 17 17 20 24 21 28 35 37 39 40 45 47 46 48 43 43 46 52 43 52 58 49 51 57 51 45 35 38 36 38 36 44 44 48 49 7 13 17 21 6
5 5 14 11 14 10 16 15 20 27 32 36 39 43 46 46 42 43 44 45 47 52 43 53 58 52 50 54 51 37 32 37 44 40 35 42 42 39 43 27 16 15 14
7 8 11 15 12 10 13 14 17 22 28 34 38 40 44 43 44 42 42 43 42 44 51 47 53 58 46 49 49 53 37 33 37 41 37 37 36 36 40 34 31 24 17
8 12 16 9 5 11 10 13 14 20 26 33 36 37 40 40 43 42 41 40 38 42 38 45 42 50 57 47 48 49 54 44 38 37 37 34 36 32 32 35 34 34 28
11 13 14 6 4 9 8 9 11 16 23 28 31 32 35 38 39 39 40 45 39 36 40 37 46 44 49 52 44 43 47 49 45 42 44 41 38 35 33 34 35 33 33
11 10 14 5 4 9 9 8 8 11 19 25 26 27 30 31 37 39 38 44 44 44 45 44 45 48 49 50 48 44 41 37 40 39 41 43 36 34 29 34 33 25 22
15 16 16 10 2 12 10 8 6 7 15 22 22 24 26 27 29 36 39 43 46 49 51 52 53 55 55 52 49 47 45 41 36 37 37 40 36 35 36 33 32 32 29
16 19 18 13 15 11 9 8 6 5 9 15 18 21 20 23 24 28 34 40 45 47 49 51 54 54 56 57 55 52 46 43 39 43 36 37 37 38 37 39 37 34 35
18 20 19 20 16 9 9 9 5 3 5 7 11 15 17 21 23 25 28 31 35 41 46 48 49 53 54 53 47 48 50 49 43 38 38 43 45 46 46 43 40 41 40
20 20 22 21 16 12 9 10 6 5 5 5 9 12 15 17 19 21 23 26 29 33 37 42 43 41 42 45 44 44 45 45 45 44 47 48 48 48 47 46 45 40 40
Wind_Direction_500mb
353 351 351 352 353 348 345 351 353 355 352 345 353 349 342 340 345 345 343 355 345 338 330 329 330 321 315 312 313 311 285 281 277 283 289 256 254 240 239 243 235 226 223
355 354 352 353 355 346 347 356 355 349 350 351 351 347 343 347 349 341 343 356 353 347 342 334 331 330 323 312 309 308 297 280 270 254 283 298 278 240 231 231 239 229 224
355 353 353 352 353 347 352 356 352 348 357 348 357 348 350 351 347 343 344 353 352 354 351 344 336 332 328 312 309 307 297 279 274 248 235 293 267 323 240 228 227 232 228
353 351 351 352 350 349 352 354 352 350 357 356 356 351 351 347 344 342 345 350 353 352 351 348 338 334 327 325 315 322 309 290 278 254 238 226 279 316 329 206 231 229 227
352 351 351 345 343 352 352 355 350 354 359 355 354 351 350 347 345 341 342 355 353 356 352 345 337 333 326 319 314 329 328 317 264 246 249 250 257 267 271 297 347 232 235
353 349 348 346 360 352 351 355 349 357 358 352 355 357 352 347 339 343 343 353 354 355 351 344 342 330 325 324 331 337 341 345 283 251 241 248 249 283 249 282 295 290 263
355 353 351 351 3 348 348 352 353 356 356 353 358 360 346 339 344 352 353 349 353 354 346 349 349 335 330 338 345 355 3 355 349 303 256 254 251 262 265 276 279 293 268
357 355 354 348 357 345 348 354 356 354 353 353 358 358 337 347 10 6 4 352 356 356 352 6 16 4 11 26 21 16 6 359 336 327 285 307 294 268 258 263 285 316 270
357 357 354 349 353 345 347 358 355 352 352 355 359 357 338 359 12 9 4 357 359 1 2 21 31 30 45 47 38 28 20 5 13 4 350 327 324 297 284 258 259 253 311
355 357 356 353 351 349 351 358 354 353 350 358 1 344 342 3 7 4 359 3 2 6 7 18 33 37 33 33 18 28 22 16 12 5 344 348 311 312 298 256 260 246 261
356 357 357 337 351 347 353 354 356 350 353 2 359 342 360 12 357 357 7 13 7 5 8 15 28 34 25 23 20 20 26 23 12 13 350 333 332 327 311 302 272 255 250
355 358 356 326 359 350 0 354 355 350 357 4 358 345 6 16 3 1 20 20 11 6 11 14 24 31 24 29 16 11 5 354 341 331 327 310 335 331 325 293 277 269 262
355 353 346 332 13 360 354 353 355 353 359 6 358 350 9 6 10 3 14 20 14 9 17 24 23 25 23 18 29 32 27 22 19 7 325 292 284 308 310 305 309 269 263
345 345 335 328 13 359 346 0 356 2 360 9 360 355 8 1 10 11 6 9 15 17 11 18 27 32 24 14 13 20 26 31 29 21 11 350 277 287 305 293 283 280 270
338 336 335 331 8 4 354 1 3 360 8 6 1 359 5 4 2 21 10 7 17 20 12 19 28 27 30 17 9 17 22 21 29 32 25 15 349 265 309 301 282 280 274
332 327 329 332 1 7 346 2 7 2 13 4 4 3 6 9 1 12 24 10 10 3 15 22 28 28 29 18 18 12 15 18 28 23 28 24 17 344 312 24 60 18 310
301 303 318 330 349 1 338 8 11 2 11 4 10 10 9 11 4 16 29 15 5 10 3 12 23 29 29 20 18 14 20 12 10 15 21 22 22 20 342 271 298 320 337
243 256 290 322 321 336 343 15 25 7 10 9 14 15 13 10 11 17 25 18 9 9 9 5 13 20 23 17 19 19 23 21 5 9 19 14 16 22 17 12 332 299 287
236 232 280 288 324 333 352 26 26 19 16 16 16 15 12 10 13 16 19 17 8 7 10 8 6 13 21 20 14 13 23 28 12 7 11 16 18 14 3 7 18 16 357
209 230 257 285 312 349 350 29 20 26 21 18 15 14 9 9 12 13 14 12 13 12 8 6 8 7 12 16 11 5 8 14 12 9 6 21 10 8 10 1 5 4 10
214 240 257 245 320 339 339 7 11 27 35 20 13 15 12 15 13 15 18 13 14 16 15 17 13 17 8 3 10 9 5 360 2 3 8 13 6 2 2 4 9 355 342
225 233 247 236 311 326 326 335 8 23 44 23 11 14 15 20 21 20 24 22 21 24 24 21 23 20 14 10 11 9 8 4 355 1 9 359 358 2 4 2 1 348 340
223 221 231 209 239 297 305 329 351 14 42 25 8 10 12 17 26 29 30 32 30 29 29 26 24 23 19 17 17 15 12 11 17 19 9 2 5 6 6 6 4 2 3
227 221 223 192 234 258 301 320 338 3 32 29 8 8 12 17 20 27 26 29 31 31 28 25 24 22 20 19 19 19 17 19 18 16 13 3 11 14 12 13 10 5 4
232 224 215 213 227 222 284 297 308 299 343 30 358 3 9 13 15 20 22 23 24 23 22 20 19 15 18 17 15 18 22 18 16 13 17 16 15 15 14 15 15 16 15
231 225 214 222 227 222 235 276 281 266 292 341 344 346 360 7 8 13 16 20 22 21 19 16 13 14 18 20 22 23 22 23 22 24 22 18 14 11 7 10 13 15 11
Wind_Speed_850mb
32 29 31 33 32 37 38 38 43 50 49 52 56 55 58 53 53 49 61 52 54 59 60 51 51 47 48 46 44 39 35 34 31 27 28 49 54 41 37 45 44 42 36
32 29 32 35 35 37 39 40 43 48 46 47 53 56 63 54 54 51 60 55 59 56 52 50 57 50 44 43 40 37 29 31 29 22 19 19 27 53 46 38 41 49 44
32 31 33 34 34 39 40 41 42 47 47 53 54 62 66 61 58 57 66 70 56 52 53 50 52 57 48 40 38 35 32 26 25 27 19 11 9 20 28 42 42 41 49
31 29 32 33 34 38 39 40 42 46 48 53 54 57 58 59 60 59 62 70 58 56 61 58 54 56 49 41 32 30 29 24 28 27 27 24 29 10 14 19 37 45 48
29 29 31 33 30 37 40 40 43 45 49 52 49 52 56 58 58 58 64 74 64 64 67 70 66 49 43 38 24 29 33 18 23 23 23 13 19 27 19 29 12 30 31
26 26 29 34 34 35 38 39 44 45 46 49 50 52 56 57 57 54 62 79 78 75 73 79 66 48 37 28 21 19 23 17 7 16 12 14 10 8 18 20 25 21 11
26 27 32 36 36 39 37 37 43 47 47 50 52 54 51 64 52 45 54 69 81 78 81 83 55 37 29 17 16 19 18 15 12 8 12 17 14 15 20 17 27 26 26
25 27 30 34 34 38 37 37 42 48 49 52 51 51 58 69 40 48 56 62 72 75 81 83 54 33 22 14 15 19 19 18 9 10 7 10 14 20 19 17 17 21 23
26 25 27 31 32 36 39 38 43 45 48 51 53 49 59 58 46 53 56 59 65 73 77 71 61 47 34 28 22 25 25 20 20 12 9 10 6 12 19 26 22 24 10
22 22 24 29 29 37 40 38 41 45 47 47 50 48 66 53 62 55 48 59 59 67 71 71 59 43 42 31 32 25 24 23 20 15 15 18 13 11 11 18 27 20 25
19 20 23 25 21 31 33 37 40 45 46 47 49 54 48 48 60 60 37 51 58 57 58 63 57 61 40 27 25 23 20 19 20 17 17 18 17 15 11 12 18 23 26
17 17 20 29 21 31 34 37 40 44 44 44 47 56 42 49 55 61 42 52 56 53 52 55 57 59 59 44 33 35 27 21 22 21 16 13 16 20 18 13 13 20 24
15 15 19 29 24 33 34 35 39 43 45 44 46 54 52 49 46 57 51 51 48 53 53 58 52 54 57 56 47 42 37 32 33 34 24 22 15 14 21 19 18 19 16
11 12 17 25 17 28 32 33 37 41 43 45 46 51 50 54 41 45 55 56 37 48 53 48 54 53 50 49 50 46 51 42 31 29 39 24 19 12 19 20 26 13 18
9 10 17 24 16 27 31 32 34 40 40 45 45 49 47 46 48 38 48 52 53 42 47 42 48 55 52 48 40 41 40 52 40 38 38 43 19 20 22 17 17 22 26
6 8 15 21 16 25 29 28 33 38 38 42 42 45 47 46 53 33 38 49 50 49 53 46 40 49 57 51 39 34 39 37 53 48 38 43 41 13 4 13 3 10 18
5 7 13 17 17 20 24 21 28 35 37 39 40 45 47 46 48 43 43 46 52 43 52 58 49 51 57 51 45 35 38 36 38 36 44 44 48 49 7 13 17 21 6
5 5 14 11 14 10 16 15 20 27 32 36 39 43 46 46 42 43 44 45 47 52 43 53 58 52 50 54 51 37 32 37 44 40 35 42 42 39 43 27 16 15 14
7 8 11 15 12 10 13 14 17 22 28 34 38 40 44 43 44 42 42 43 42 44 51 47 53 58 46 49 49 53 37 33 37 41 37 37 36 36 40 34 31 24 17
8 12 16 9 5 11 10 13 14 20 26 33 36 37 40 40 43 42 41 40 38 42 38 45 42 50 57 47 48 49 54 44 38 37 37 34 36 32 32 35 34 34 28
11 13 14 6 4 9 8 9 11 16 23 28 31 32 35 38 39 39 40 45 39 36 40 37 46 44 49 52 44 43 47 49 45 42 44 41 38 35 33 34 35 33 33
11 10 14 5 4 9 9 8 8 11 19 25 26 27 30 31 37 39 38 44 44 44 45 44 45 48 49 50 48 44 41 37 40 39 41 43 36 34 29 34 33 25 22
15 16 16 10 2 12 10 8 6 7 15 22 22 24 26 27 29 36 39 43 46 49 51 52 53 55 55 52 49 47 45 41 36 37 37 40 36 35 36 33 32 32 29
16 19 18 13 15 11 9 8 6 5 9 15 18 21 20 23 24 28 34 40 45 47 49 51 54 54 56 57 55 52 46 43 39 43 36 37 37 38 37 39 37 34 35
18 20 19 20 16 9 9 9 5 3 5 7 11 15 17 21 23 25 28 31 35 41 46 48 49 53 54 53 47 48 50 49 43 38 38 43 45 46 46 43 40 41 40
20 20 22 21 16 12 9 10 6 5 5 5 9 12 15 17 19 21 23 26 29 33 37 42 43 41 42 45 44 44 45 45 45 44 47 48 48 48 47 46 45 40 40
Wind_Direction_850mb
353 351 351 352 353 348 345 351 353 355 352 345 353 349 342 340 345 345 343 355 345 338 330 329 330 321 315 312 313 311 285 281 277 283 289 256 254 240 239 243 235 226 223
355 354 352 353 355 346 347 356 355 349 350 351 351 347 343 347 349 341 343 356 353 347 342 334 331 330 323 312 309 308 297 280 270 254 283 298 278 240 231 231 239 229 224
355 353 353 352 353 347 352 356 352 348 357 348 357 348 350 351 347 343 344 353 352 354 351 344 336 332 328 312 309 307 297 279 274 248 235 293 267 323 240 228 227 232 228
353 351 351 352 350 349 352 354 352 350 357 356 356 351 351 347 344 342 345 350 353 352 351 348 338 334 327 325 315 322 309 290 278 254 238 226 279 316 329 206 231 229 227
352 351 351 345 343 352 352 355 350 354 359 355 354 351 350 347 345 341 342 355 353 356 352 345 337 333 326 319 314 329 328 317 264 246 249 250 257 267 271 297 347 232 235
353 349 348 346 360 352 351 355 349 357 358 352 355 357 352 347 339 343 343 353 354 355 351 344 342 330 325 324 331 337 341 345 283 251 241 248 249 283 249 282 295 290 263
355 353 351 351 3 348 348 352 353 356 356 353 358 360 346 339 344 352 353 349 353 354 346 349 349 335 330 338 345 355 3 355 349 303 256 254 251 262 265 276 279 293 268
357 355 354 348 357 345 348 354 356 354 353 353 358 358 337 347 10 6 4 352 356 356 352 6 16 4 11 26 21 16 6 359 336 327 285 307 294 268 258 263 285 316 270
357 357 354 349 353 345 347 358 355 352 352 355 359 357 338 359 12 9 4 357 359 1 2 21 31 30 45 47 38 28 20 5 13 4 350 327 324 297 284 258 259 253 311
355 357 356 353 351 349 351 358 354 353 350 358 1 344 342 3 7 4 359 3 2 6 7 18 33 37 33 33 18 28 22 16 12 5 344 348 311 312 298 256 260 246 261
356 357 357 337 351 347 353 354 356 350 353 2 359 342 360 12 357 357 7 13 7 5 8 15 28 34 25 23 20 20 26 23 12 13 350 333 332 327 311 302 272 255 250
355 358 356 326 359 350 0 354 355 350 357 4 358 345 6 16 3 1 20 20 11 6 11 14 24 31 24 29 16 11 5 354 341 331 327 310 335 331 325 293 277 269 262
355 353 346 332 13 360 354 353 355 353 359 6 358 350 9 6 10 3 14 20 14 9 17 24 23 25 23 18 29 32 27 22 19 7 325 292 284 308 310 305 309 269 263
345 345 335 328 13 359 346 0 356 2 360 9 360 355 8 1 10 11 6 9 15 17 11 18 27 32 24 14 13 20 26 31 29 21 11 350 277 287 305 293 283 280 270
338 336 335 331 8 4 354 1 3 360 8 6 1 359 5 4 2 21 10 7 17 20 12 19 28 27 30 17 9 17 22 21 29 32 25 15 349 265 309 301 282 280 274
332 327 329 332 1 7 346 2 7 2 13 4 4 3 6 9 1 12 24 10 10 3 15 22 28 28 29 18 18 12 15 18 28 23 28 24 17 344 312 24 60 18 310
301 303 318 330 349 1 338 8 11 2 11 4 10 10 9 11 4 16 29 15 5 10 3 12 23 29 29 20 18 14 20 12 10 15 21 22 22 20 342 271 298 320 337
243 256 290 322 321 336 343 15 25 7 10 9 14 15 13 10 11 17 25 18 9 9 9 5 13 20 23 17 19 19 23 21 5 9 19 14 16 22 17 12 332 299 287
236 232 280 288 324 333 352 26 26 19 16 16 16 15 12 10 13 16 19 17 8 7 10 8 6 13 21 20 14 13 23 28 12 7 11 16 18 14 3 7 18 16 357
209 230 257 285 312 349 350 29 20 26 21 18 15 14 9 9 12 13 14 12 13 12 8 6 8 7 12 16 11 5 8 14 12 9 6 21 10 8 10 1 5 4 10
214 240 257 245 320 339 339 7 11 27 35 20 13 15 12 15 13 15 18 13 14 16 15 17 13 17 8 3 10 9 5 360 2 3 8 13 6 2 2 4 9 355 342
225 233 247 236 311 326 326 335 8 23 44 23 11 14 15 20 21 20 24 22 21 24 24 21 23 20 14 10 11 9 8 4 355 1 9 359 358 2 4 2 1 348 340
223 221 231 209 239 297 305 329 351 14 42 25 8 10 12 17 26 29 30 32 30 29 29 26 24 23 19 17 17 15 12 11 17 19 9 2 5 6 6 6 4 2 3
227 221 223 192 234 258 301 320 338 3 32 29 8 8 12 17 20 27 26 29 31 31 28 25 24 22 20 19 19 19 17 19 18 16 13 3 11 14 12 13 10 5 4
232 224 215 213 227 222 284 297 308 299 343 30 358 3 9 13 15 20 22 23 24 23 22 20 19 15 18 17 15 18 22 18 16 13 17 16 15 15 14 15 15 16 15
231 225 214 222 227 222 235 276 281 266 292 341 344 346 360 7 8 13 16 20 22 21 19 16 13 14 18 20 22 23 22 23 22 24 22 18 14 11 7 10 13 15 11